Regional Weather Roundup
Issued by NWS

Home | Current Version | Previous Version | Graphics & Text | Print | Product List | Glossary On
Versions: 1 2 3 4 5 6 7 8 9 10 11 12 13 14 15 16 17 18 19 20 21 22 23 24 25 26 27 28 29 30 31 32 33 34 35 36 37 38 39 40 41 42 43 44 45 46 47 48 49 50
000
ASUS43 KLOT 270610
RWRIL

ILLINOIS REGIONAL WEATHER ROUNDUP
NATIONAL WEATHER SERVICE CHICAGO/ROMEOVILLE IL
1200 AM CST TUE JAN 27 2015

NOTE: "FAIR" INDICATES FEW OR NO CLOUDS BELOW 12,000 FEET WITH NO
SIGNIFICANT WEATHER AND/OR OBSTRUCTIONS TO VISIBILITY.

* THESE STATIONS ARE NOT UNDER NWS QUALITY CONTROL. THEY ALSO MAY NOT
  REPORT WEATHER SUCH AS PRECIPITATION OR FOG.

ILZ001-002-007-009-015-016-024-270700-
NORTHWEST ILLINOIS

CITY           SKY/WX    TMP DP  RH WIND       PRES   REMARKS
MOLINE         CLOUDY    32  30  92 SW5       29.91R FOG     WCI  27
6HR MIN TEMP:  31; 6HR MAX TEMP:  33;

STERLING*      CLOUDY    28  27  93 CALM      29.91R
SAVANNA*       CLOUDY    28  27  95 CALM      29.92R FOG
$$

ILZ003-004-008-010-011-017-018-270700-
NORTH CENTRAL ILLINOIS

CITY           SKY/WX    TMP DP  RH WIND       PRES   REMARKS
ROCKFORD       LGT SNOW  27  24  89 N3        29.92S FOG
6HR MIN TEMP:  25; 6HR MAX TEMP:  27; 6HR PCP:  0.01;

FREEPORT*      FOG       26  25  97 CALM      29.93R VSB 3/4
ROCHELLE*      LGT SNOW  27  27  99 CALM      29.91R
DE KALB*       LGT SNOW  26  25  97 CALM      29.90R
PERU*          FOG       30  30  99 CALM      29.90S VSB 3/4
$$

ILZ005-006-012>014-019>023-270700-
NORTHEAST ILLINOIS

CITY           SKY/WX    TMP DP  RH WIND       PRES   REMARKS
CHICAGO-OHARE  LGT SNOW  26  24  92 SE5       29.90S FOG     WCI  20
6HR MIN TEMP:  25; 6HR MAX TEMP:  26; 6HR PCP:  0.07;

CHICAGO-MIDWAY LGT SNOW  28  25  88 E6        29.91F FOG     WCI  22
6HR MIN TEMP:  27; 6HR MAX TEMP:  28; 6HR PCP:  0.04;

AURORA         LGT SNOW  28  25  88 E3        29.90S FOG
6HR MIN TEMP:  26; 6HR MAX TEMP:  28; 6HR PCP: TRACE;

LANSING*       MIX PCPN  25  24  95 E6        29.92S WCI  18
JOLIET*        LGT SNOW  27  26  95 SE3       29.90F
WAUKEGAN       CLOUDY    26  23  88 CALM      29.91R
6HR MIN TEMP:  25; 6HR MAX TEMP:  26; 6HR PCP: TRACE;

DUPAGE AIRPORT LGT SNOW  26  24  92 E3        29.89S FOG
6HR MIN TEMP:  25; 6HR MAX TEMP:  27; 6HR PCP:  0.02;

KANKAKEE*      MIX PCPN  28  27  96 E3        29.91S
WHEELING       LGT SNOW  27  24  89 CALM      29.92S FOG
6HR MIN TEMP:  26; 6HR MAX TEMP:  27; 6HR PCP: TRACE;

MORRIS*        CLOUDY    28  28 100 CALM      29.89F FOG
ROMEOVILLE*    LGT SNOW  27  27  99 E3        29.90S
NORTHERLY ISL    N/A     27  25  92 SE6         N/A  WCI  21
$$

LMZ740>746-270700-
SOUTHERN LAKE MICHIGAN

STATION/POSITION SKY/WX   TEMP    WIND        PRES    VSBY  WAVE
                          AIR SEA DIR/SP/G                  HT/PER
                          (F)     (DEG/KT/KT) (MB)    (MI)  (FT/S)
WAUKEGAN HARBOR            27      CALM  /  5   N/A
HARRISON CRIB              26     140/ 10/ 12   N/A
BURNHAM HARBOR             27     140/  6       N/A
CALUMET HARBOR             26     130/  4/  6   N/A
MICHIGAN CITY              23     110/  4/  5   N/A
$$

ILZ025>027-034>036-040-047-049-050-058-095>099-270700-
WEST-CENTRAL ILLINOIS

CITY           SKY/WX    TMP DP  RH WIND       PRES   REMARKS
QUINCY         PTCLDY    39  34  82 NW12      29.92R WCI  32
GALESBURG*     CLOUDY    34  33  96 NW5       29.91R WCI  30
MACOMB*        CLOUDY    35  34  95 NW7       29.94R WCI  29
JACKSONVILLE*  CLOUDY    35  32  90 W7        29.91R WCI  29
PITTSFIELD*    CLOUDY    40  35  81 W6        29.93R
$$

ILZ028>032-037-038-041>044-048-051>054-059>061-270700-
CENTRAL ILLINOIS

CITY           SKY/WX    TMP DP  RH WIND       PRES   REMARKS
PONTIAC        FOG       31  31 100 CALM      29.89S VSB 1
BLOOMINGTON    CLOUDY    31  30  96 W5        29.89R FOG     WCI  26
DECATUR        CLOUDY    32  32 100 W3        29.89S FOG
PEORIA         CLOUDY    32  29  88 NW3       29.90R
6HR MIN TEMP:  31; 6HR MAX TEMP:  33;

LACON*         CLOUDY    30  28  95 CALM      29.90R FOG
LINCOLN*       CLOUDY    33  32  94 CALM      29.91R FOG
SPRINGFIELD    CLOUDY    32  30  92 W3        29.90R
6HR MIN TEMP:  32; 6HR MAX TEMP:  33;

TAYLORVILLE    CLOUDY    32  30  93 CALM      29.90R
$$

ILZ033-039-045-046-055>057-062-063-270700-
EAST-CENTRAL ILLINOIS

CITY           SKY/WX    TMP DP  RH WIND       PRES   REMARKS
CHAMPAIGN      CLOUDY    30  28  92 SE3       29.89S FOG
DANVILLE*      LGT SNOW  28  27  96 SE6       29.87F WCI  21
RANTOUL*       CLOUDY    31  30  96 S5        29.88F FOG     WCI  26
MATTOON        CLOUDY    29  27  92 S5        29.88S FOG     WCI  24
PARIS*         CLOUDY    29  28  99 NE6       29.91F WCI  23
$$

ILZ079-100>102-270700-
SOUTHWEST ILLINOIS

CITY           SKY/WX    TMP DP  RH WIND       PRES   REMARKS
ALTON          CLOUDY    34  31  87 CALM      29.91S
BELLEVILLE     CLOUDY    34  32  90 N1        29.89F
CAHOKIA*       CLOUDY    35  30  82 W5        29.90F WCI  31
SPARTA*        CLOUDY    35  31  85 CALM      29.91F
$$

ILZ064>066-069>071-074>076-080>082-084>086-088>090-092>094-270700-
SOUTH-CENTRAL ILLINOIS

CITY           SKY/WX    TMP DP  RH WIND       PRES   REMARKS
CARBONDALE     CLOUDY    36  31  82 SW6       29.90F WCI  31
6HR MIN TEMP:  34; 6HR MAX TEMP:  36;

CAIRO*         MOCLDY    33  32  97 CALM      29.92F
EFFINGHAM*     CLOUDY    31  28  89 CALM      29.91S FOG
MARION         CLOUDY    37  32  81 SW5       29.91S WCI  34
MT. VERNON     CLOUDY    32  27  80 SW3       29.90F
CENTRALIA*     CLOUDY    32  29  90 S3        29.89F
SALEM*         CLOUDY    34  31  88 CALM      29.89F
METROPOLIS*    CLOUDY    37  32  84 S5        29.90F WCI  33
$$

ILZ067-068-072-073-078-083-087-091-270700-
SOUTHEAST ILLINOIS

CITY           SKY/WX    TMP DP  RH WIND       PRES   REMARKS
LAWRENCEVILLE  CLOUDY    30  29  96 SE6       29.92F FOG     WCI  24
FLORA*         CLOUDY    31  30  96 S3        29.90F
FAIRFIELD*     CLOUDY    32  30  93 CALM      29.89F
HARRISBURG*    CLOUDY    33  32  96 NE3       29.92F
ROBINSON*      CLOUDY    29  28  98 SE3       29.93S FOG
CARMI*         CLOUDY    34  32  93 S6        29.90F FOG     WCI  29
$$

ABBREVIATIONS USED IN REMARKS
   TC - TEMPERATURE IN CELSIUS
  WCI - WIND CHILL INDEX
   HX - HEAT INDEX
  VSB - VISIBILITY
$$




USA.gov is the U.S. government's official web portal to all federal, state and local government web resources and services.